[[{"header":{"parameterUnit":"m.s-1","parameterCategory":1,"la1":30.2991,"la2":30.254,"lo1":-89.0895,"lo2":-89.0444,"dy":0.0017,"dx":0.0017,"nx":28,"ny":28,"refTime":"2024-10-18T21:00:00:Z","depth":0,"parameterNumber":2,"parameterNumberName":"U-component_of_WINDS"},"data":[0,0,0,0,0,0,0,0,0,0,0,0,0,0,0,0,0,0,0,0,0,0,0,0,0,0,0,0,0,0,0,0,0,0,0,0,0,0,0,0,0,0,0,0,0,0,0,0,0,0,0,0,0,0,0,0,0,0,-2.1027,-2.1027,0,-2.0979,-2.0978,-2.0978,-2.0917,-2.0917,-2.0916,-2.0915,-2.0866,-2.0866,-2.0865,0,0,0,0,0,0,0,0,0,0,0,0,0,-2.1071,-2.107,-2.1028,-2.1027,-2.1026,-2.0979,-2.0978,-2.0977,-2.0918,-2.0916,-2.0915,-2.0914,-2.0866,-2.0866,-2.0865,0,0,0,0,0,0,0,0,0,0,0,0,0,-2.104,-2.107,-2.1028,-2.0991,-2.0987,-2.0979,-2.0978,-2.0977,-2.0918,-2.0916,-2.0915,-2.0914,-2.0866,-2.0866,-2.0865,-2.089,0,0,-2.0863,-2.0863,0,0,0,0,0,0,0,0,-2.1042,-2.1039,-2.0997,-2.0993,-2.0989,-2.0953,-2.0975,-2.0948,-2.0918,-2.0944,-2.0915,-2.0913,-2.0896,-2.0893,-2.0887,-2.0888,-2.0886,-2.0863,-2.0863,-2.0863,-2.0862,0,0,0,0,0,0,0,-2.1044,-2.104,-2.1008,-2.0996,-2.0991,-2.0977,-2.0971,-2.097,-2.0929,-2.0942,-2.0937,-2.0932,-2.0894,-2.0888,-2.0885,-2.0885,-2.0863,-2.0863,-2.0862,-2.0862,-2.0906,-2.0907,0,0,0,0,0,0,-2.1052,-2.1042,-2.101,-2.1007,-2.1012,-2.0978,-2.0971,-2.0966,-2.0929,-2.0922,-2.0934,-2.093,-2.089,-2.0886,-2.0884,-2.0912,-2.0863,-2.0862,-2.0862,-2.0904,-2.0906,-2.0908,0,0,0,0,0,0,-2.1053,-2.1049,-2.1012,-2.1023,-2.1018,-2.0978,-2.0973,-2.0966,-2.096,-2.0922,-2.0915,-2.0935,-2.0888,-2.0884,-2.0889,-2.091,-2.0862,-2.0861,-2.0903,-2.0905,-2.0907,-2.0969,0,0,0,0,0,0,-2.1054,-2.105,-2.1059,-2.1024,-2.1017,-2.1018,-2.0974,-2.0966,-2.0959,-2.0953,-2.0922,-2.0915,-2.0887,-2.0891,-2.0889,-2.0908,-2.0861,-2.0901,-2.0904,-2.0906,-2.0965,-2.0973,-2.098,0,0,0,0,0,-2.1056,-2.1078,-2.1059,-2.1056,-2.1027,-2.1019,-2.1015,-2.0982,-2.096,-2.0969,-2.0946,-2.0916,-2.0907,-2.0892,-2.0889,-2.0908,-2.0899,-2.0903,-2.0906,-2.0961,-2.0971,-2.098,0,0,0,0,0,0,-2.1116,-2.1072,-2.1052,-2.1062,-2.1045,-2.1009,-2.1019,-2.0993,-2.0982,-2.0977,-2.0936,-2.093,-2.094,-2.0924,-2.0908,-2.0931,-2.0899,-2.0902,-2.0942,-2.0951,-2.0958,-2.0963,-2.086,0,0,0,0,0,-2.113,-2.1127,-2.1089,-2.1103,-2.1095,-2.1059,-2.1054,-2.103,-2.101,-2.1003,-2.0979,-2.0962,-2.0955,-2.0952,-2.0943,-2.0961,-2.0955,-2.0973,-2.0981,-2.0987,-2.0991,-2.1002,-2.1011,-2.0919,-2.0919,-2.0919,0,0,-2.116,-2.1136,-2.1136,-2.1114,-2.1098,-2.1096,-2.1053,-2.1053,-2.1052,-2.1003,-2.1007,-2.0989,-2.0967,-2.0979,-2.0983,-2.0966,-2.1015,-2.0992,-2.0997,-2.0997,-2.1007,-2.1015,-2.1023,-2.0921,-2.0921,-2.0921,0,0,-2.1214,-2.1195,-2.1205,-2.1189,-2.1165,-2.1141,-2.1144,-2.1112,-2.1098,-2.1101,-2.1065,-2.1063,-2.1052,-2.1038,-2.103,-2.108,-2.1054,-2.1079,-2.1119,-2.113,-2.1137,-2.1143,-2.1164,-2.1172,-2.1082,-2.1082,-2.1082,0,-2.1255,-2.1251,-2.1213,-2.1216,-2.1208,-2.1163,-2.1174,-2.1161,-2.1136,-2.1132,-2.1112,-2.1099,-2.108,-2.109,-2.1103,-2.1096,-2.11,-2.1083,-2.1139,-2.1145,-2.115,-2.1169,-2.1177,-2.1086,-2.1085,-2.1085,-2.1085,0,-2.1303,-2.1301,-2.1312,-2.1289,-2.1282,-2.1289,-2.1254,-2.1251,-2.1227,-2.1206,-2.1211,-2.1187,-2.1174,-2.1174,-2.1151,-2.1181,-2.1172,-2.1146,-2.1113,-2.1163,-2.1181,-2.1187,-2.109,-2.1089,-2.1088,-2.1087,0,0,-2.1395,-2.1351,-2.1356,-2.1346,-2.1316,-2.1314,-2.1319,-2.1307,-2.1307,-2.129,-2.1295,-2.1287,-2.1264,-2.1255,-2.1229,-2.1239,-2.1283,-2.1212,-2.1211,-2.1229,-2.1319,-2.134,-2.1349,-2.1265,-2.1266,-2.1267,-2.1321,0,-2.1446,-2.1452,-2.1419,-2.1435,-2.1434,-2.1391,-2.1396,-2.1379,-2.1359,-2.1356,-2.1333,-2.1329,-2.1297,-2.1292,-2.1299,-2.1277,-2.1301,-2.1272,-2.1271,-2.1271,-2.1281,-2.1358,-2.138,-2.1433,-2.1328,-2.1329,-2.133,0,-2.1506,-2.1494,-2.151,-2.1481,-2.1479,-2.1484,-2.1471,-2.1467,-2.1448,-2.1432,-2.1423,-2.1394,-2.1398,-2.1365,-2.1372,-2.1353,-2.135,-2.1339,-2.134,-2.1341,-2.1306,-2.1364,-2.1448,-2.1458,-2.1339,-2.1339,-2.1338,0,-2.1575,-2.1562,-2.1571,-2.1563,-2.1528,-2.1533,-2.1519,-2.1498,-2.1493,-2.1481,-2.1478,-2.1467,-2.1462,-2.1454,-2.1424,-2.1402,-2.1435,-2.1399,-2.1425,-2.1426,-2.1436,-2.1436,-2.1525,-2.143,-2.143,-2.1429,-2.1429,0,-2.1637,-2.1649,-2.1602,-2.1607,-2.162,-2.1582,-2.1596,-2.1577,-2.1559,-2.1561,-2.1523,-2.1526,-2.1484,-2.1482,-2.1458,-2.1469,-2.1466,-2.1456,-2.145,-2.1461,-2.1463,-2.1461,-2.1457,-2.1431,-2.1431,-2.1431,-2.143,0,-2.1717,-2.1685,-2.1692,-2.1659,-2.1651,-2.1663,-2.1635,-2.1639,-2.1616,-2.162,-2.1618,-2.1583,-2.158,-2.1548,-2.1537,-2.1521,-2.1543,-2.1528,-2.155,-2.1546,-2.1575,-2.1574,-2.1668,-2.1679,-2.1574,-2.1575,-2.1576,0,-2.176,-2.1769,-2.1737,-2.1736,-2.1724,-2.1721,-2.1716,-2.1679,-2.1676,-2.1654,-2.1662,-2.1655,-2.1649,-2.1645,-2.162,-2.1612,-2.1599,-2.1632,-2.1598,-2.1609,-2.1603,-2.1604,-2.1606,-2.1641,-2.1642,-2.1643,-2.1644,0,-2.1841,-2.1825,-2.1819,-2.1809,-2.1804,-2.1793,-2.1781,-2.1782,-2.1741,-2.1739,-2.1735,-2.173,-2.1719,-2.1715,-2.1702,-2.1689,-2.1661,-2.1654,-2.1661,-2.1674,-2.1687,-2.1684,-2.1573,-2.1653,-2.1652,-2.1652,-2.1651,-2.1651,-2.1906,-2.1913,-2.1892,-2.1887,-2.1873,-2.1863,-2.1866,-2.1844,-2.184,-2.1829,-2.1806,-2.1807,-2.1788,-2.1769,-2.1758,-2.1758,-2.1741,-2.1749,-2.1752,-2.1755,-2.1763,-2.1685,-2.1755,-2.1755,-2.1755,-2.1754,-2.1754,0,-2.1988,-2.1972,-2.1968,-2.1952,-2.1949,-2.1921,-2.1906,-2.1905,-2.1906,-2.189,-2.1884,-2.1881,-2.1876,-2.185,-2.1843,-2.1848,-2.1835,-2.1848,-2.1849,-2.1847,-2.1777,-2.1773,-2.1859,-2.1859,-2.1859,-2.1859,-2.1859,-2.1859,-2.203,-2.2041,-2.2022,-2.2026,-2.201,-2.201,-2.2005,-2.1995,-2.1983,-2.1981,-2.1977,-2.1959,-2.194,-2.1931,-2.1926,-2.1919,-2.1919,-2.1937,-2.1926,-2.1861,-2.1851,-2.1842,-2.1839,-2.1936,-2.1936,-2.1996,-2.1996,-2.1997]},{"header":{"parameterUnit":"m.s-1","parameterCategory":1,"la1":30.2991,"la2":30.254,"lo1":-89.0895,"lo2":-89.0444,"dy":0.0017,"dx":0.0017,"nx":28,"ny":28,"refTime":"2024-10-18T21:00:00:Z","depth":0,"parameterNumber":3,"parameterNumberName":"V-component_of_WINDS"},"data":[0,0,0,0,0,0,0,0,0,0,0,0,0,0,0,0,0,0,0,0,0,0,0,0,0,0,0,0,0,0,0,0,0,0,0,0,0,0,0,0,0,0,0,0,0,0,0,0,0,0,0,0,0,0,0,0,0,0,-1.2819,-1.2819,0,-1.2852,-1.2852,-1.2853,-1.2898,-1.2899,-1.29,-1.2901,-1.2933,-1.2934,-1.2934,0,0,0,0,0,0,0,0,0,0,0,0,0,-1.2795,-1.2795,-1.2819,-1.2819,-1.282,-1.2852,-1.2852,-1.2853,-1.2898,-1.2899,-1.29,-1.2901,-1.2933,-1.2934,-1.2934,0,0,0,0,0,0,0,0,0,0,0,0,0,-1.2815,-1.2795,-1.2819,-1.2846,-1.2849,-1.2852,-1.2852,-1.2853,-1.2898,-1.2899,-1.29,-1.2901,-1.2933,-1.2934,-1.2934,-1.2912,0,0,-1.2935,-1.2935,0,0,0,0,0,0,0,0,-1.2813,-1.2815,-1.2842,-1.2844,-1.2847,-1.2872,-1.2856,-1.2873,-1.2898,-1.2879,-1.2901,-1.2902,-1.2912,-1.2914,-1.2918,-1.2914,-1.2915,-1.2935,-1.2935,-1.2935,-1.2935,0,0,0,0,0,0,0,-1.2812,-1.2814,-1.2832,-1.2842,-1.2846,-1.2857,-1.2861,-1.2859,-1.2889,-1.2881,-1.2884,-1.2888,-1.2914,-1.2917,-1.2919,-1.2915,-1.2935,-1.2935,-1.2935,-1.2935,-1.2898,-1.2897,0,0,0,0,0,0,-1.2807,-1.2813,-1.2831,-1.2833,-1.2833,-1.2856,-1.2861,-1.2863,-1.2889,-1.2894,-1.2887,-1.289,-1.2916,-1.2919,-1.292,-1.2899,-1.2935,-1.2935,-1.2935,-1.2899,-1.2898,-1.2897,0,0,0,0,0,0,-1.2806,-1.2808,-1.2829,-1.2824,-1.2827,-1.2856,-1.2858,-1.2863,-1.2867,-1.2893,-1.2899,-1.2885,-1.2917,-1.292,-1.2914,-1.29,-1.2935,-1.2935,-1.29,-1.2899,-1.2897,-1.2854,0,0,0,0,0,0,-1.2805,-1.2807,-1.2799,-1.2823,-1.2828,-1.2823,-1.2857,-1.2863,-1.2867,-1.2871,-1.2893,-1.2898,-1.2919,-1.2914,-1.2915,-1.2901,-1.2935,-1.2902,-1.29,-1.2898,-1.2857,-1.2851,-1.2846,0,0,0,0,0,-1.2804,-1.2785,-1.2798,-1.28,-1.2818,-1.2822,-1.2824,-1.2849,-1.2866,-1.2858,-1.2876,-1.2897,-1.2901,-1.2913,-1.2914,-1.2901,-1.2903,-1.29,-1.2898,-1.2859,-1.2852,-1.2846,0,0,0,0,0,0,-1.2757,-1.2788,-1.2804,-1.2792,-1.2804,-1.283,-1.2821,-1.284,-1.2848,-1.2851,-1.2881,-1.2886,-1.2877,-1.2888,-1.29,-1.2882,-1.2906,-1.2903,-1.2876,-1.2869,-1.2864,-1.2862,-1.2936,0,0,0,0,0,-1.2746,-1.2746,-1.2773,-1.276,-1.2766,-1.2792,-1.2795,-1.2813,-1.2826,-1.2832,-1.2849,-1.2861,-1.2866,-1.2868,-1.2873,-1.2858,-1.2865,-1.285,-1.2844,-1.284,-1.2838,-1.2834,-1.2828,-1.2888,-1.2888,-1.2888,0,0,-1.2722,-1.2739,-1.2737,-1.2751,-1.2763,-1.2764,-1.2796,-1.2795,-1.2796,-1.2831,-1.2828,-1.2841,-1.2857,-1.2847,-1.2844,-1.2856,-1.2823,-1.2837,-1.2833,-1.2834,-1.283,-1.2825,-1.282,-1.2887,-1.2887,-1.2887,0,0,-1.2679,-1.2691,-1.2682,-1.2694,-1.2711,-1.2729,-1.2727,-1.275,-1.2761,-1.2758,-1.2785,-1.2787,-1.2793,-1.2804,-1.2811,-1.2773,-1.2794,-1.2774,-1.2747,-1.2742,-1.2737,-1.2733,-1.2722,-1.2718,-1.2772,-1.2772,-1.2772,0,-1.2646,-1.2649,-1.2675,-1.2674,-1.268,-1.2713,-1.2705,-1.2714,-1.2732,-1.2736,-1.275,-1.276,-1.2773,-1.2768,-1.2759,-1.2762,-1.2762,-1.2773,-1.2736,-1.2732,-1.2729,-1.2719,-1.2714,-1.2769,-1.277,-1.277,-1.277,0,-1.261,-1.2611,-1.2602,-1.262,-1.2625,-1.262,-1.2647,-1.2648,-1.2666,-1.2683,-1.2681,-1.2697,-1.2708,-1.2708,-1.2724,-1.2705,-1.2713,-1.273,-1.2755,-1.272,-1.2711,-1.2708,-1.2766,-1.2767,-1.2767,-1.2768,0,0,-1.2538,-1.2572,-1.2569,-1.2579,-1.2601,-1.2603,-1.26,-1.2611,-1.2613,-1.2624,-1.2624,-1.2629,-1.2646,-1.2653,-1.2672,-1.2667,-1.264,-1.2686,-1.2687,-1.2679,-1.2623,-1.2611,-1.2606,-1.2653,-1.2653,-1.2652,-1.2622,0,-1.2501,-1.2499,-1.2524,-1.2515,-1.2517,-1.2549,-1.2547,-1.2561,-1.2576,-1.2581,-1.2598,-1.2603,-1.2624,-1.2629,-1.2626,-1.2644,-1.2629,-1.2646,-1.2654,-1.2654,-1.2651,-1.2601,-1.2588,-1.2559,-1.2619,-1.2618,-1.2618,0,-1.2458,-1.2469,-1.246,-1.2485,-1.2487,-1.2485,-1.2498,-1.2502,-1.2519,-1.253,-1.2539,-1.2561,-1.2561,-1.2582,-1.2583,-1.2594,-1.2599,-1.2608,-1.2608,-1.2611,-1.2635,-1.2605,-1.255,-1.2547,-1.2612,-1.2613,-1.2613,0,-1.241,-1.2422,-1.2419,-1.2426,-1.2454,-1.2452,-1.2464,-1.2482,-1.2488,-1.2499,-1.2504,-1.2514,-1.252,-1.2528,-1.2553,-1.2566,-1.2551,-1.2575,-1.2563,-1.2562,-1.2559,-1.256,-1.2507,-1.2559,-1.2559,-1.2559,-1.2559,0,-1.2367,-1.2362,-1.2399,-1.2397,-1.2392,-1.242,-1.2415,-1.2429,-1.2445,-1.2448,-1.2475,-1.2476,-1.2507,-1.2513,-1.2531,-1.2531,-1.2533,-1.2543,-1.2549,-1.2542,-1.2541,-1.2547,-1.255,-1.2558,-1.2558,-1.2558,-1.2558,0,-1.2313,-1.2338,-1.2337,-1.2365,-1.2371,-1.2367,-1.239,-1.239,-1.2408,-1.2411,-1.2413,-1.2441,-1.2449,-1.2473,-1.2487,-1.25,-1.2494,-1.2503,-1.2489,-1.2493,-1.248,-1.2482,-1.2431,-1.2426,-1.2479,-1.2478,-1.2478,0,-1.2286,-1.2282,-1.231,-1.2314,-1.2325,-1.233,-1.2337,-1.2365,-1.237,-1.239,-1.2388,-1.2399,-1.2409,-1.242,-1.2441,-1.2453,-1.2463,-1.2445,-1.2465,-1.2459,-1.2466,-1.2466,-1.2467,-1.2441,-1.244,-1.2439,-1.2439,0,-1.2235,-1.2247,-1.2256,-1.2269,-1.2276,-1.2288,-1.2301,-1.2302,-1.2334,-1.2339,-1.2348,-1.2356,-1.2371,-1.2381,-1.2396,-1.2408,-1.2429,-1.2432,-1.243,-1.2424,-1.2417,-1.2423,-1.2479,-1.2433,-1.2434,-1.2434,-1.2435,-1.2435,-1.2195,-1.2194,-1.2214,-1.2223,-1.2236,-1.2248,-1.225,-1.2269,-1.2277,-1.2292,-1.2308,-1.2315,-1.2334,-1.2356,-1.2367,-1.2374,-1.2385,-1.2382,-1.2381,-1.2381,-1.2379,-1.2415,-1.2377,-1.2377,-1.2377,-1.2377,-1.2377,0,-1.2147,-1.2162,-1.217,-1.2188,-1.2196,-1.2215,-1.2231,-1.2236,-1.2242,-1.2258,-1.2268,-1.2279,-1.229,-1.2312,-1.2325,-1.2327,-1.2337,-1.2329,-1.233,-1.2333,-1.2367,-1.2368,-1.2321,-1.2321,-1.2321,-1.2321,-1.2321,-1.2321,-1.2124,-1.2125,-1.214,-1.2148,-1.2162,-1.2171,-1.2178,-1.219,-1.2203,-1.2215,-1.2224,-1.2239,-1.2258,-1.2273,-1.2284,-1.229,-1.2295,-1.2285,-1.2294,-1.2325,-1.2331,-1.2336,-1.2337,-1.2285,-1.2285,-1.2261,-1.226,-1.226]}]]